Regional Weather Roundup
Issued by NWS Midland/Odessa, TX

Skip options and go directly to product.
Home | Oldest Version | Previous Version | Current Version | All | Text Only | Save Text | Print | Product List | Glossary Off

Skip product version selection by date and time.   

993
ASUS44 KMAF 190110
RWRMAF
MIDLAND AREA WEATHER ROUNDUP
NATIONAL WEATHER SERVICE MIDLAND TX
800 PM CDT THU SEP 18 2014

...IN SOUTHWEST TEXAS AND SOUTHEAST NEW MEXICO...

CITY           SKY/WX    TMP DP  RH WIND       PRES   REMARKS
ALPINE         PTCLDY    71  65  81 CALM      30.05R
ANDREWS        DRIZZLE   70  67  92 E9        29.97R
ARTESIA        NOT AVBL
BIG SPRING     CLOUDY    74  69  86 NE10      29.95R
CARLSBAD       LGT RAIN  74  74 100 N6        29.92R
DRYDEN           N/A     86  69  56 E12       29.84R
FORT STOCKTON  CLOUDY    72  70  93 NE10      29.93R
GUAD PASS      CLOUDY    65  63  93 NE29      30.04R
HOBBS          CLOUDY    70  68  94 E13       29.98R
MARFA          CLOUDY    72  63  73 NE9G18    30.01R
MIDLAND AIRPK  LGT RAIN  73  70  91 E8        29.94R
MIDLAND INTL   LGT RAIN  72  69  90 E12       29.93R
ODESSA         LGT RAIN  71  68  90 E10       29.95R
PECOS          CLOUDY    71  66  84 E9        29.90R
PRESIDIO       FAIR      90  63  39 E15       29.80R
SEMINOLE       CLOUDY    70  66  86 E8        29.97S
SNYDER         CLOUDY    70  67  92 E7        29.95R
WINK           CLOUDY    72  66  81 SE12G25   29.91R
$$
...OTHER STATIONS IN TEXAS...

CITY           SKY/WX    TMP DP  RH WIND       PRES   REMARKS
ABILENE        CLOUDY    73  72  96 SE6       29.92R
AMARILLO       PTCLDY    67  60  78 SE8       30.01R
AUSTIN         TSTM      74  73  97 NE13      29.86F FOG
BROWNSVILLE    PTCLDY    82  77  84 SE7       29.79R
CORPUS CHRISTI PTCLDY    83  75  77 SE12      29.79S
DALLAS FTW     MOCLDY    83  68  60 E5        29.86S
DEL RIO        PTCLDY    87  71  58 E3        29.77R
EL PASO        CLOUDY    69  65  86 N12       29.92S
HOUSTON INT    CLOUDY    76  73  91 SE8       29.86F
LUBBOCK        CLOUDY    68  64  87 SE10      29.98R
SAN ANGELO     MOCLDY    73  71  93 E10       29.91R
SAN ANTONIO    MOCLDY    82  71  69 NE5       29.82R
WACO           CLOUDY    75  72  90 E5        29.88S
WICHITA FALLS  NOT AVBL
$$
...OTHER LOCATIONS IN NEW MEXICO...

CITY           SKY/WX    TMP DP  RH WIND       PRES   REMARKS
ALAMAGORDO     CLOUDY    68  63  83 W5        29.98R
ALBUQUERQUE    PTCLDY    74  56  53 S15       29.99R
CANNON AFB     MOCLDY    66  66 100 E8        30.02R
CLOVIS           N/A     66  63  88 SE9       30.04R
HOLLOMAN AFB   MOCLDY    68  65  88 CALM      29.96R
ROSWELL        LGT RAIN  71  65  81 S5        29.95S
RUIDOSO        CLOUDY    59  57  94 CALM      30.13S
SANTA FE       CLEAR     74  48  39 S20       30.04R
TRUTH OR CONSE CLOUDY    69  60  73 CALM      29.99R
TUCUMCARI      MOCLDY    72  60  66 S12       29.99R
$$

USA.gov is the U.S. government's official web portal to all federal, state and local government web resources and services.